| time (UTC) | temp C | wind direction | speed KPH | gust KPH | rain 1hr cm | rain 24hr cm | rain mn cm | humidity % | barometer mb |
| 20260508120702 | 1 | 0 | 0.0 | 0.0 | 0.00 | 0.15 | 0.15 | 98 | 1005.3 |
| 20260508120205 | 5 | 230 | 9.7 | 19.3 | 0.15 | 0.61 | 0.61 | 89 | 1007.2 |
| 20260508120201 | 1 | 0 | 0.0 | 0.0 | 0.00 | 0.15 | 0.15 | 98 | 1005.2 |
| 20260508113705 | 3 | 240 | 8.0 | 14.5 | 0.20 | 0.61 | 0.61 | 90 | 1007.4 |
| 20260508113702 | 1 | 0 | 0.0 | 0.0 | 0.00 | 0.15 | 0.15 | 98 | 1005.4 |
| 20260508113205 | 3 | 252 | 9.7 | 27.4 | 0.20 | 0.61 | 0.61 | 90 | 1007.5 |
| 20260508113203 | 1 | 0 | 0.0 | 0.0 | 0.00 | 0.15 | 0.15 | 98 | 1005.4 |
| 20260508110705 | 2 | 227 | 8.0 | 16.1 | 0.25 | 0.51 | 0.51 | 91 | 1007.6 |
| 20260508110205 | 3 | 234 | 6.4 | 19.3 | 0.20 | 0.46 | 0.46 | 91 | 1007.5 |
| 20260508103702 | 1 | 0 | 0.0 | 0.0 | 0.00 | 0.15 | 0.15 | 97 | 1005.3 |
| 20260508103205 | 3 | 211 | 8.0 | 19.3 | 0.15 | 0.41 | 0.41 | 93 | 1007.1 |
| 20260508103202 | 1 | 0 | 0.0 | 0.0 | 0.00 | 0.15 | 0.15 | 97 | 1005.3 |
| 20260508100704 | 4 | 235 | 6.4 | 19.3 | 0.00 | 0.25 | 0.25 | 89 | 1006.8 |
| 20260508100702 | 1 | 0 | 0.0 | 0.0 | 0.03 | 0.15 | 0.15 | 96 | 1005.0 |
| 20260508100204 | 4 | 237 | 9.7 | 22.5 | 0.00 | 0.25 | 0.25 | 85 | 1006.8 |
| 20260508100202 | 1 | 0 | 0.0 | 0.0 | 0.03 | 0.15 | 0.15 | 96 | 1005.0 |
| 20260508093705 | 5 | 228 | 9.7 | 19.3 | 0.00 | 0.25 | 0.25 | 82 | 1006.6 |
| 20260508093702 | 1 | 0 | 0.0 | 0.0 | 0.03 | 0.15 | 0.15 | 94 | 1004.9 |
| 20260508093205 | 5 | 251 | 11.3 | 20.9 | 0.00 | 0.25 | 0.25 | 78 | 1006.5 |
| 20260508093202 | 1 | 0 | 0.0 | 0.0 | 0.03 | 0.15 | 0.15 | 95 | 1004.8 |
| 20260508090705 | 5 | 224 | 11.3 | 19.3 | 0.00 | 0.25 | 0.25 | 79 | 1006.5 |
| 20260508090702 | 1 | 0 | 0.0 | 0.0 | 0.00 | 0.15 | 0.15 | 95 | 1004.8 |
| 20260508090202 | 1 | 0 | 0.0 | 0.0 | 0.00 | 0.15 | 0.15 | 95 | 1004.7 |
| 20260508083704 | 5 | 230 | 9.7 | 22.5 | 0.00 | 0.25 | 0.25 | 84 | 1006.3 |
| 20260508083204 | 5 | 250 | 8.0 | 19.3 | 0.00 | 0.25 | 0.25 | 81 | 1006.3 |
| 20260508080705 | 5 | 234 | 8.0 | 16.1 | 0.00 | 0.25 | 0.25 | 79 | 1006.2 |
| 20260508080702 | 1 | 0 | 0.0 | 0.0 | 0.05 | 0.15 | 0.15 | 90 | 1004.3 |
| 20260508080204 | 5 | 230 | 8.0 | 14.5 | 0.00 | 0.25 | 0.25 | 81 | 1006.1 |
| 20260508080202 | 1 | 0 | 0.0 | 0.0 | 0.05 | 0.15 | 0.15 | 90 | 1004.2 |
| 20260508073704 | 3 | 215 | 8.0 | 11.3 | 0.00 | 0.25 | 0.25 | 86 | 1006.1 |
| 20260508073702 | 1 | 0 | 0.0 | 0.0 | 0.05 | 0.13 | 0.13 | 94 | 1004.0 |
| 20260508073204 | 3 | 224 | 6.4 | 14.5 | 0.00 | 0.25 | 0.25 | 85 | 1006.1 |
| 20260508070704 | 3 | 240 | 4.8 | 11.3 | 0.00 | 0.25 | 0.25 | 91 | 1006.0 |
| 20260508070702 | 1 | 0 | 0.0 | 0.0 | 0.03 | 0.10 | 0.10 | 91 | 1004.1 |
| 20260508070204 | 3 | 230 | 4.8 | 12.9 | 0.00 | 0.25 | 0.25 | 91 | 1005.9 |
| 20260508063702 | 1 | 0 | 0.0 | 0.0 | 0.00 | 0.08 | 0.08 | 86 | 1004.0 |
| 20260508063204 | 3 | 225 | 3.2 | 11.3 | 0.03 | 0.25 | 0.25 | 88 | 1005.9 |
| 20260508063202 | 1 | 0 | 0.0 | 0.0 | 0.00 | 0.08 | 0.08 | 86 | 1003.9 |
| 20260508060204 | 3 | 222 | 1.6 | 11.3 | 0.03 | 0.25 | 0.25 | 88 | 1005.6 |
| 20260508053704 | 3 | 213 | 4.8 | 9.7 | 0.00 | 0.23 | 0.23 | 85 | 1005.7 |
| 20260508053203 | 3 | 235 | 3.2 | 14.5 | 0.00 | 0.23 | 0.23 | 84 | 1005.4 |
| 20260508050704 | 4 | 229 | 8.0 | 14.5 | 0.13 | 0.23 | 0.23 | 84 | 1005.2 |
| 20260508050204 | 3 | 219 | 9.7 | 12.9 | 0.13 | 0.23 | 0.23 | 85 | 1005.1 |
| 20260508043703 | 1 | 0 | 0.0 | 0.0 | 0.03 | 0.05 | 0.05 | 97 | 1003.3 |
| 20260508043203 | 1 | 0 | 0.0 | 0.0 | 0.00 | 0.05 | 0.05 | 97 | 1003.4 |
| 20260508040702 | 1 | 0 | 0.0 | 0.0 | 0.00 | 0.05 | 0.05 | 95 | 1003.4 |
| 20260508040204 | 4 | 274 | 3.2 | 12.9 | 0.08 | 0.10 | 0.10 | 87 | 1005.2 |
| 20260508040202 | 1 | 0 | 0.0 | 0.0 | 0.00 | 0.05 | 0.05 | 95 | 1003.3 |
| 20260508033704 | 5 | 221 | 1.6 | 4.8 | 0.03 | 0.05 | 0.05 | 85 | 1005.3 |
| 20260508033204 | 5 | 230 | 1.6 | 4.8 | 0.03 | 0.05 | 0.05 | 87 | 1005.5 |
| 20260508030705 | 5 | 216 | 1.6 | 4.8 | 0.03 | 0.03 | 0.03 | 90 | 1005.6 |
| 20260508030205 | 5 | 216 | 1.6 | 4.8 | 0.03 | 0.03 | 0.03 | 92 | 1005.7 |
| 20260508030202 | 1 | 0 | 0.0 | 0.0 | 0.03 | 0.05 | 0.05 | 93 | 1004.0 |
| 20260508023705 | 5 | 160 | 0.0 | 4.8 | 0.03 | 0.03 | 0.03 | 93 | 1005.8 |
| 20260508023703 | 2 | 0 | 0.0 | 0.0 | 0.00 | 0.03 | 0.03 | 93 | 1004.1 |
| 20260508023205 | 5 | 180 | 3.2 | 4.8 | 0.03 | 0.03 | 0.03 | 94 | 1005.9 |
| 20260508023203 | 2 | 0 | 0.0 | 0.0 | 0.00 | 0.03 | 0.03 | 94 | 1004.3 |
| 20260508020704 | 5 | 195 | 1.6 | 4.8 | 0.00 | 0.00 | 0.00 | 93 | 1006.2 |
| 20260508020205 | 5 | 196 | 1.6 | 4.8 | 0.00 | 0.00 | 0.00 | 93 | 1006.2 |
| 20260508020203 | 2 | 0 | 0.0 | 0.0 | 0.03 | 0.03 | 0.03 | 96 | 1004.5 |
| 20260508013704 | 5 | 142 | 3.2 | 4.8 | 0.00 | 0.00 | 0.00 | 92 | 1006.5 |
| 20260508013205 | 5 | 161 | 1.6 | 4.8 | 0.00 | 0.00 | 0.00 | 92 | 1006.6 |
| 20260508013203 | 2 | 0 | 0.0 | 0.0 | 0.03 | 0.03 | 0.03 | 94 | 1004.9 |
| 20260508010704 | 5 | 201 | 1.6 | 3.2 | 0.00 | 0.00 | 0.00 | 90 | 1006.6 |
| 20260508003705 | 6 | 216 | 1.6 | 4.8 | 0.00 | 0.00 | 0.00 | 81 | 1006.8 |
| 20260508003703 | 3 | 0 | 0.0 | 0.0 | 0.00 | 0.00 | 0.00 | 90 | 1005.4 |
| 20260508003204 | 6 | 208 | 3.2 | 9.7 | 0.00 | 0.00 | 0.00 | 79 | 1006.8 |
| 20260508000704 | 6 | 216 | 4.8 | 9.7 | 0.00 | 0.00 | 0.00 | 78 | 1007.0 |
| 20260508000205 | 6 | 211 | 3.2 | 8.0 | 0.00 | 0.00 | 0.00 | 79 | 1007.0 |
| 20260507233704 | 6 | 224 | 3.2 | 9.7 | 0.00 | 0.00 | 0.00 | 78 | 1007.2 |
| 20260507233205 | 6 | 219 | 4.8 | 11.3 | 0.00 | 0.00 | 0.00 | 78 | 1007.3 |
| 20260507233203 | 3 | 0 | 0.0 | 0.0 | 0.00 | 0.00 | 0.00 | 88 | 1005.9 |
| 20260507230704 | 7 | 214 | 3.2 | 8.0 | 0.00 | 0.00 | 0.00 | 77 | 1007.5 |
| 20260507230204 | 7 | 213 | 4.8 | 11.3 | 0.00 | 0.00 | 0.00 | 77 | 1007.4 |
| 20260507223705 | 7 | 210 | 4.8 | 11.3 | 0.00 | 0.00 | 0.00 | 77 | 1007.7 |
| 20260507223703 | 3 | 0 | 0.0 | 0.0 | 0.00 | 0.00 | 0.00 | 87 | 1006.2 |
| 20260507223203 | 3 | 0 | 0.0 | 0.0 | 0.00 | 0.00 | 0.00 | 88 | 1006.3 |
| 20260507220704 | 7 | 229 | 3.2 | 8.0 | 0.00 | 0.00 | 0.00 | 77 | 1008.0 |
| 20260507220204 | 7 | 222 | 3.2 | 8.0 | 0.00 | 0.00 | 0.00 | 77 | 1008.1 |
| 20260507213704 | 6 | 230 | 3.2 | 4.8 | 0.00 | 0.00 | 0.00 | 82 | 1008.3 |
| 20260507213204 | 6 | 220 | 3.2 | 9.7 | 0.00 | 0.00 | 0.00 | 83 | 1008.4 |
| 20260507210204 | 6 | 230 | 1.6 | 4.8 | 0.00 | 0.00 | 0.00 | 85 | 1008.3 |
| 20260507203703 | 2 | 0 | 0.0 | 0.0 | 0.00 | 0.00 | 0.00 | 96 | 1006.3 |
| 20260507203204 | 6 | 157 | 0.0 | 3.2 | 0.00 | 0.00 | 0.00 | 82 | 1008.0 |
| 20260507200705 | 7 | 213 | 0.0 | 3.2 | 0.00 | 0.00 | 0.00 | 78 | 1007.7 |
| 20260507200204 | 7 | 218 | 0.0 | 4.8 | 0.00 | 0.00 | 0.00 | 77 | 1007.6 |
| 20260507193704 | 7 | 213 | 1.6 | 4.8 | 0.00 | 0.00 | 0.00 | 75 | 1007.4 |
| 20260507193204 | 4 | 0 | 0.0 | 0.0 | 0.00 | 0.00 | 0.00 | 83 | 1005.7 |
| 20260507190705 | 7 | 233 | 1.6 | 4.8 | 0.00 | 0.00 | 0.00 | 72 | 1006.9 |
| 20260507190703 | 3 | 0 | 0.0 | 0.0 | 0.00 | 0.00 | 0.00 | 94 | 1005.4 |
| 20260507190204 | 8 | 226 | 3.2 | 8.0 | 0.00 | 0.00 | 0.00 | 71 | 1006.9 |
| 20260507183703 | 4 | 0 | 0.0 | 0.0 | 0.00 | 0.00 | 0.00 | 93 | 1005.5 |
| 20260507183204 | 8 | 227 | 3.2 | 8.0 | 0.00 | 0.00 | 0.00 | 69 | 1006.8 |
| 20260507180705 | 8 | 310 | 3.2 | 4.8 | 0.00 | 0.00 | 0.00 | 78 | 1006.7 |
| 20260507180703 | 4 | 0 | 0.0 | 0.0 | 0.00 | 0.03 | 0.00 | 94 | 1005.4 |
| 20260507180205 | 8 | 301 | 3.2 | 11.3 | 0.00 | 0.00 | 0.00 | 78 | 1006.7 |
| 20260507180203 | 4 | 0 | 0.0 | 0.0 | 0.00 | 0.03 | 0.00 | 94 | 1005.4 |
| 20260507173705 | 8 | 292 | 4.8 | 9.7 | 0.00 | 0.00 | 0.00 | 74 | 1006.9 |
| 20260507173204 | 4 | 0 | 0.0 | 0.0 | 0.00 | 0.05 | 0.00 | 93 | 1005.7 |
| 20260507170705 | 10 | 290 | 4.8 | 11.3 | 0.00 | 0.00 | 0.00 | 72 | 1006.9 |
| 20260507170205 | 10 | 292 | 6.4 | 14.5 | 0.00 | 0.00 | 0.00 | 71 | 1006.9 |
| 20260507170203 | 5 | 0 | 0.0 | 0.0 | 0.00 | 0.08 | 0.00 | 90 | 1005.7 |
| 20260507163705 | 10 | 280 | 9.7 | 19.3 | 0.00 | 0.00 | 0.00 | 70 | 1006.9 |
| 20260507163702 | 5 | 0 | 0.0 | 0.0 | 0.00 | 0.13 | 0.00 | 90 | 1005.8 |
| 20260507163205 | 10 | 332 | 4.8 | 19.3 | 0.00 | 0.00 | 0.00 | 68 | 1006.9 |
| 20260507163202 | 5 | 0 | 0.0 | 0.0 | 0.00 | 0.13 | 0.00 | 91 | 1005.7 |
| 20260507160705 | 10 | 286 | 6.4 | 14.5 | 0.00 | 0.00 | 0.00 | 68 | 1007.1 |
| 20260507160701 | 5 | 0 | 0.0 | 0.0 | 0.00 | 0.15 | 0.00 | 87 | 1005.8 |
| 20260507160205 | 10 | 293 | 8.0 | 19.3 | 0.00 | 0.00 | 0.00 | 65 | 1007.0 |
| 20260507160202 | 5 | 0 | 0.0 | 0.0 | 0.00 | 0.15 | 0.00 | 88 | 1005.8 |
| 20260507153705 | 10 | 274 | 8.0 | 14.5 | 0.00 | 0.00 | 0.00 | 70 | 1007.0 |
| 20260507153701 | 5 | 0 | 0.0 | 0.0 | 0.00 | 0.15 | 0.00 | 88 | 1005.8 |
| 20260507153205 | 10 | 262 | 8.0 | 19.3 | 0.00 | 0.00 | 0.00 | 70 | 1007.2 |
| 20260507150704 | 10 | 236 | 8.0 | 19.3 | 0.00 | 0.00 | 0.00 | 68 | 1007.5 |
| 20260507150202 | 5 | 0 | 0.0 | 0.0 | 0.00 | 0.15 | 0.00 | 92 | 1006.1 |
| 20260507143704 | 10 | 234 | 8.0 | 20.9 | 0.00 | 0.00 | 0.00 | 66 | 1007.7 |
| 20260507143702 | 5 | 0 | 0.0 | 0.0 | 0.00 | 0.15 | 0.00 | 87 | 1006.0 |
| 20260507143204 | 10 | 215 | 11.3 | 24.1 | 0.00 | 0.00 | 0.00 | 66 | 1007.9 |
| 20260507143202 | 5 | 0 | 0.0 | 0.0 | 0.00 | 0.15 | 0.00 | 88 | 1006.1 |
| 20260507140704 | 10 | 233 | 9.7 | 16.1 | 0.00 | 0.00 | 0.00 | 66 | 1008.0 |
| 20260507140204 | 10 | 227 | 9.7 | 22.5 | 0.00 | 0.00 | 0.00 | 65 | 1008.1 |
| 20260507140202 | 5 | 0 | 0.0 | 0.0 | 0.00 | 0.15 | 0.00 | 86 | 1006.2 |
| 20260507133705 | 10 | 228 | 11.3 | 19.3 | 0.00 | 0.00 | 0.00 | 65 | 1007.9 |
| 20260507133701 | 5 | 0 | 0.0 | 0.0 | 0.00 | 0.15 | 0.00 | 85 | 1006.2 |
| 20260507133204 | 10 | 218 | 11.3 | 20.9 | 0.00 | 0.00 | 0.00 | 65 | 1008.0 |
| 20260507130704 | 10 | 261 | 9.7 | 22.5 | 0.00 | 0.00 | 0.00 | 61 | 1008.2 |
| 20260507130702 | 5 | 0 | 0.0 | 0.0 | 0.00 | 0.15 | 0.00 | 86 | 1006.4 |
| 20260507130204 | 10 | 210 | 9.7 | 32.2 | 0.00 | 0.00 | 0.00 | 63 | 1008.1 |
| 20260507130202 | 5 | 0 | 0.0 | 0.0 | 0.00 | 0.15 | 0.00 | 89 | 1006.5 |
| 20260507123704 | 10 | 225 | 16.1 | 27.4 | 0.00 | 0.00 | 0.00 | 57 | 1008.2 |
| 20260507123702 | 5 | 0 | 0.0 | 0.0 | 0.00 | 0.15 | 0.00 | 78 | 1006.5 |
| 20260507123202 | 6 | 0 | 0.0 | 0.0 | 0.00 | 0.15 | 0.00 | 76 | 1006.5 |